星链-5744 (STARLINK-5744 )

导读 | 星芒AI

STARLINK-5744 是 SpaceX Starlink 卫星互联网项目中的一颗低轨卫星,属于“星链”星座的一部分。该卫星由 SpaceX 研制并发射,旨在为全球用户提供高速互联网服务。它运行在约 550 公里的近地轨道上,采用先进的通信技术,支持宽带接入。STARLINK-5744 与其他星链卫星协同工作,提升网络覆盖与连接稳定性,尤其在偏远地区发挥重要作用。该卫星项目推动了全球互联网普及,并促进航天与通信技术的发展。

基本信息
目录编号:
55601
目录名称:
STARLINK-5744
国际标识:
2023-020AJ
轨道中心:
EARTH
卫星名称:
星链-5744
卫星全名:
星链-5744 (STARLINK-5744 )
卫星状态:
在轨 (已飞行1043 天)
发射日期:
2023-02-12 UTC
国别 :
美国 (US)
星等 :
--
轨道信息
数据来源 国际轨道数据
星历时间: 2025-12-20T20:11:58+0800
1天前
查看轨道信息
半长轴: 6937.217km
偏心率: 0.0002051
轨道倾角: 43.005°
近地点辐角 272.987°
升交点赤经 74.438°
平近点角 87.073°
近地点: 557.657km
远地点: 560.503km
周期: 95.838分钟
每日圈数: 15.025361
详细信息
固有亮度:
5
最大亮度:
2.5
卫星平台:
Starlink v1.5
覆盖范围:
全球
运营商:
太空探索技术公司
运营商所在国:
美国
制造商(研发单位):
太空探索技术公司
制造商所在国:
美国
使用方式:
暂无
卫星简介
星链(Starlink)计划是由太空探索技术公司(SpaceX)提出的一个巨型低轨卫星互联网星座项目,计划在2019年至2024年间在太空搭建由约1.2万颗卫星组成的“星链”网络,其中1584颗将部署在地球上空550千米处的近地轨道,并从2020年开始工作。该卫星仍在工作。
2D轨道图
3D轨道图
轨道高度分析图
轨道倾角分析图
轨道综合分析图
查看轨道综合分析图